User: anonymous   Login
Location: Unspecified
(0.0000°N, 0.0000°E)
Time: 01:17:06
(UTC+00:00)
Language:

GONETS M 05 - Orbit

View from above orbital plane
View from above orbital plane
View from above satellite
View from above satellite

Ground track
Ground track

The orbit data is extracted from the following two-line orbital elements,

1 39249U 13048A   17293.43142720  .00000024  00000-0  10000-3 0  9998
2 39249  82.4823 154.4203 0015088 271.1562  88.7789 12.42873574186264
Epoch (UTC): 20 October 2017 10:21:15
Eccentricity: 0.0015088
inclination: 82.4823°
perigee height: 1482 km
apogee height: 1506 km
right ascension of ascending node: 154.4203°
argument of perigee: 271.1562°
revolutions per day: 12.42873574
mean anomaly at epoch: 88.7789°
orbit number at epoch: 18626

The dashed part of the orbit path shows where the satellite is in the earth's shadow,  

DLR